Regional Weather Roundup
Issued by NWS

Home | Current Version | Previous Version | Text Only | Print | Product List | Glossary On
Versions: 1 2 3 4 5 6 7 8 9 10 11 12 13 14 15 16 17 18 19 20 21 22 23 24 25 26 27 28 29 30 31 32 33 34 35 36 37 38 39 40 41 42 43 44 45 46 47 48 49 50
000
ASCA44 KEWX 162220
RWRMX

LATIN AMERICA AND CARIBBEAN REGIONAL WEATHER ROUNDUP
NATIONAL WEATHER SERVICE AUSTIN/SAN ANTONIO TX
500 PM CDT MON OCT 16 2017

NOTE: "FAIR" INDICATED FEW OR NO CLOUDS BELOW 12,000 FEET WITH NO
SIGNIFICANT WEATHER AND/OR OBSTRUCTIONS TO VISIBILITY.

BAJA CALIFORNIA

CITY           SKY/WX    TMP DP  RH WIND       PRES   REMARKS
LORETO         MOSUNNY   93  77  59 NE15      29.85S HX 107
LA PAZ         SUNNY     90  66  45 NW13      29.88F HX  92
MEXICALI       SUNNY     93  14   5 NW6       29.99F
S.J. DEL CABO  SUNNY     90  68  48 E17       29.87F HX  93
TIJUANA        SUNNY     90  41  18 W16       29.99F

NORTHWESTERN MEXICO

CITY           SKY/WX    TMP DP  RH WIND       PRES   REMARKS
CULIACAN       SUNNY    100  72  39 SW12      29.81F HX 109
DURANGO        MOSUNNY   73  46  38 N10       30.34F
GUAYMAS        MOSUNNY   95  72  46 W24       29.81F HX 103
HERMOSILLO     SUNNY    104  54  18 W6        29.89F HX 102
CD. JUAREZ     SUNNY     77  39  25 E9        30.31F
LOS MOCHIS     SUNNY     97  61  30 W9        29.85F HX  97
OBREGON        SUNNY    106  46  13 W7        29.80F HX 102

NORTHEASTERN MEXICO

CITY           SKY/WX    TMP DP  RH WIND       PRES   REMARKS
CHIHUAHUA      SUNNY     77  46  33 E8        30.31F
MATAMOROS      CLOUDY    77  55  47 N10       30.14
MONCLOVA       SUNNY     75  48  38 N7          N/A
MONTERREY      PTSUNNY   73  46  38 NW9G21    30.24F
NUEVO LAREDO   SUNNY     75  43  31 NW13      30.23F
PIEDRAS NEGRAS SUNNY     75  48  38 NW7       30.28
REYNOSA        SUNNY     79  41  25 N12       30.16F
SALTILLO       PTSUNNY   57  46  67 CALM      30.39F
TORREON        PTSUNNY   79  54  41 N8        30.27F
CD. VICTORIA   MOSUNNY   77  52  41 MISG      30.15F

WESTERN MEXICO

CITY           SKY/WX    TMP DP  RH WIND       PRES   REMARKS
AGUASCALIENTES MOSUNNY   75  48  38 E8        30.31S
COLIMA         MOSUNNY   86  72  62 W6        29.94F HX  92
DEL BAJIO      PTSUNNY   72  52  49 E15       30.34F
GUADALAJARA    PTSUNNY   79  50  36 E12       30.18F
MANZANILLO     MOSUNNY   88  81  79 SW7       29.81  HX 105
MAZATLAN       SUNNY     91  79  66 W5        29.85S HX 107
P. VALLARTA    SUNNY     88  81  79 SW10      29.83  HX 105
URUAPAN        PTSUNNY   77  64  65 S12       30.15
ZACATECAS      PTSUNNY   72  46  40 E12       30.36

CENTRAL MEXICO

CITY           SKY/WX    TMP DP  RH WIND       PRES   REMARKS
CUERNAVACA       N/A    N/A N/A N/A MISG        N/A
MEXICO CITY    CLOUDY    68  48  49 N16       30.35F
MORELIA        MOSUNNY   77  52  41 NE12      30.23
POZA RICA      CLOUDY    73  72  94 NW7       30.14F
PUEBLA         PTSUNNY   64  52  63 N21       30.35S
QUERETARO      CLOUDY    63  54  72 E20       30.30F
S. LUIS POTOSI PTSUNNY   72  45  37 E15       30.33
TAMPICO        CLOUDY    79  57  47 N23       30.08F
TOLUCA         PTSUNNY   64  45  48 E13       30.39F

SOUTHERN MEXICO

CITY           SKY/WX    TMP DP  RH WIND       PRES   REMARKS
ACAPULCO       MOSUNNY   88  79  74 SW16      29.77F HX 102
B. DE HUATULCO   N/A    N/A N/A N/A MISG        N/A
OAXACA         PTSUNNY   79  46  31 NE6       30.16F
P. ESCONDIDO   MOSUNNY   84  77  79 S6        29.89  HX  94
VERACRUZ       MOSUNNY   81  70  69 N22G33    29.96R
ZIHUATANEJO    MOSUNNY   91  77  62 SW12      29.80F HX 105

YUCATAN PENINSULA

CITY           SKY/WX    TMP DP  RH WIND       PRES   REMARKS
CAMPECHE       MOSUNNY   86  79  79 NW12G23   29.83F HX  99
CANCUN         MOSUNNY   84  77  79 NE6       29.87F HX  94
CHETUMAL       MOSUNNY   86  75  70 CALM      29.85F HX  95
CD. DEL CARMEN CLOUDY   N/A N/A N/A NW14      29.88F
COZUMEL        MOSUNNY   84  77  79 E6        29.85F HX  94
MERIDA         PTSUNNY   81  77  89 N7        29.86F
MINATITLAN     PTSUNNY   91  81  70 N23       29.88S HX 110
TAPACHULA      MOSUNNY   90  77  66 SW12      29.76S HX 102
TUX. GUTIERREZ PTSUNNY   79  66  65 NW17      29.91F
VILLAHERMOSA   PTSUNNY   79  79 100 CALM      29.92F

CENTRAL AMERICA

CITY           SKY/WX    TMP DP  RH WIND       PRES   REMARKS
BELIZE CITY    MOSUNNY   86  79  79 NE6       29.87R HX  99
MANAGUA        PTCLDY    88  77  70 E9        29.71S HX 100

CARIBBEAN

CITY           SKY/WX    TMP DP  RH WIND       PRES   REMARKS
ARUBA          PTCLDY    86  79  79 E26       29.74R HX  99
CURACAO        PTCLDY    86  79  79 E17       29.80R HX  99
KINGSTON       MOCLDY    86  77  74 SE10      29.83R HX  97
NASSAU         PTCLDY    86  75  70 N8        29.90F HX  95
SAN JUAN       MOCLDY    79  79 100 S5        29.95S
SANTO DOMINGO  PTCLDY    82  79  89 SE7       29.89R HX  93
ST. CROIX      LGT RAIN  79  75  89 SE10      30.01R
ST. KITTS      PTCLDY    81  77  89 E12       29.97R
ST. MAARTEN    PTCLDY    82  75  78 SE6       29.94S
ST. THOMAS     MOCLDY    82  73  74 SE13G22   32.07

$$





USA.gov is the U.S. government's official web portal to all federal, state and local government web resources and services.